Latest Coastal Weather Observations for Browse Island

IDD60701

Issued at 3:15 am CST Friday 1 August 2014 (issued every 10 minutes, with the page automatically refreshed every 10 minutes)

About coastal observations | Map of coastal stations | Coastal observations for NT | Marine services | Other Formats
Station Details ID: 200784 Name: BROWSE ISLAND Lat: -14.11 Lon: 123.55 Height: 3.7 m
Data from the previous 72 hours. | See also: Recent months for locations in Northern Territory
Date/Time
CST
Temp

°C
Wind Pressure Rain
since 9am
mm
Weather Cloud Vis
km
Sea
Height
m
Swell
Dir
 
Speed
knots
Gust
knots
hPa Trend Height
m
Period
s
Dir
01/03:00am 25.9 S 7 8 1013.7 - - - - - - - - -
01/02:30am 26.0 S 7 8 1013.7 - - - - - - - - -
01/02:00am 26.0 S 7 8 1013.9 - - - - - - - - -
01/01:30am 26.0 S 6 6 1014.0 - - - - - - - - -
01/01:00am 26.1 S 6 7 1014.3 - - - - - - - - -
01/12:30am 25.8 S 7 7 1014.2 - - - - - - - - -
01/12:00am 26.1 S 6 7 1014.4 - - - - - - - - -
 
Date/Time
CST
Temp

°C
Wind Pressure Rain
since 9am
mm
Weather Cloud Vis
km
Sea
Height
m
Swell
Dir
 
Speed
knots
Gust
knots
hPa Trend Height
m
Period
s
Dir
31/11:30pm 26.1 S 6 7 1014.2 - - - - - - - - -
31/11:00pm 25.9 SSW 6 7 1014.5 - - - - - - - - -
31/10:30pm 26.0 SSW 6 6 1014.3 - - - - - - - - -
31/10:00pm 25.9 S 3 4 1014.2 - - - - - - - - -
31/09:30pm 25.9 SE 3 4 1013.9 - - - - - - - - -
31/09:00pm 26.0 ESE 3 4 1013.6 - - - - - - - - -
31/08:30pm 26.0 SE 4 4 1013.1 - - - - - - - - -
31/08:00pm 26.0 ESE 4 5 1013.0 - - - - - - - - -
31/07:30pm 26.1 ESE 5 6 1012.6 - - - - - - - - -
31/07:00pm 26.2 ESE 5 7 1012.6 - - - - - - - - -
31/06:30pm 26.5 SE 6 7 1012.6 - - - - - - - - -
31/06:00pm 26.8 SE 7 7 1012.7 - - - - - - - - -
31/05:30pm 27.2 ESE 7 8 1012.4 - - - - - - - - -
31/05:00pm 27.5 ESE 7 8 1012.5 - - - - - - - - -
31/04:30pm 27.5 ESE 7 9 1012.4 - - - - - - - - -
31/04:00pm 26.9 ESE 7 9 1012.6 - - - - - - - - -
31/03:30pm 27.8 E 7 8 1012.8 - - - - - - - - -
31/03:00pm 27.5 ESE 7 8 1013.5 - - - - - - - - -
31/02:30pm 27.5 E 7 8 1013.9 - - - - - - - - -
31/02:00pm 27.7 ESE 7 8 1014.4 - - - - - - - - -
31/01:30pm 27.7 ESE 7 8 1014.6 - - - - - - - - -
31/01:00pm 27.7 SE 7 8 1014.9 - - - - - - - - -
31/12:30pm 27.7 ESE 7 8 1015.1 - - - - - - - - -
31/12:00pm 27.3 SE 7 8 1015.4 - - - - - - - - -
31/11:30am 27.4 SE 5 7 1015.4 - - - - - - - - -
31/11:00am 26.9 SSE 5 6 1015.7 - - - - - - - - -
31/10:30am 26.9 SSE 6 7 1015.5 - - - - - - - - -
31/10:00am 26.3 S 8 9 1015.5 - - - - - - - - -
31/09:30am 26.0 S 8 9 1015.4 - - - - - - - - -
31/09:00am 26.0 S 8 9 1015.3 - - - - - - - - -
31/08:30am 26.1 SSE 8 9 1015.0 - - - - - - - - -
31/08:00am 26.0 S 7 9 1015.1 - - - - - - - - -
31/07:30am 25.9 S 8 9 1014.7 - - - - - - - - -
31/07:00am 25.8 SSE 7 8 1014.6 - - - - - - - - -
31/06:30am 25.9 SSE 7 8 1014.3 - - - - - - - - -
31/06:00am 25.9 SE 7 7 1014.4 - - - - - - - - -
31/05:30am 25.8 SE 5 7 1014.2 - - - - - - - - -
31/05:00am 25.7 ESE 6 7 1014.4 - - - - - - - - -
31/04:30am 25.7 ESE 7 8 1014.4 - - - - - - - - -
31/04:00am 25.7 E 7 9 1014.5 - - - - - - - - -
31/03:30am 25.8 E 7 9 1014.6 - - - - - - - - -
31/03:00am 25.9 ESE 8 9 1015.1 - - - - - - - - -
31/02:30am 25.8 E 8 9 1015.0 - - - - - - - - -
31/02:00am 25.9 E 8 9 1015.3 - - - - - - - - -
31/01:30am 25.9 E 7 9 1015.3 - - - - - - - - -
31/01:00am 26.2 ESE 7 9 1015.5 - - - - - - - - -
31/12:30am 26.1 ESE 7 8 1015.3 - - - - - - - - -
31/12:00am 26.1 ESE 6 7 1015.2 - - - - - - - - -
 
Date/Time
CST
Temp

°C
Wind Pressure Rain
since 9am
mm
Weather Cloud Vis
km
Sea
Height
m
Swell
Dir
 
Speed
knots
Gust
knots
hPa Trend Height
m
Period
s
Dir
30/11:30pm 26.3 ESE 4 5 1015.1 - - - - - - - - -
30/11:00pm 26.3 ESE 4 5 1015.1 - - - - - - - - -
30/10:30pm 26.4 ESE 3 4 1015.0 - - - - - - - - -
30/10:00pm 26.3 ENE 3 3 1015.1 - - - - - - - - -
30/09:30pm 26.5 ENE 5 5 1015.0 - - - - - - - - -
30/09:00pm 26.5 E 4 5 1014.9 - - - - - - - - -
30/08:30pm 26.4 E 5 6 1014.5 - - - - - - - - -
30/08:00pm 26.4 E 5 6 1014.3 - - - - - - - - -
30/07:30pm 26.4 E 5 7 1014.0 - - - - - - - - -
30/07:00pm 26.9 E 7 9 1014.1 - - - - - - - - -
30/06:30pm 27.5 E 7 9 1013.7 - - - - - - - - -
30/06:00pm 28.0 E 7 9 1013.5 - - - - - - - - -
30/05:30pm 28.3 E 8 10 1013.3 - - - - - - - - -
30/05:00pm 28.4 E 9 11 1013.3 - - - - - - - - -
30/04:30pm 28.5 E 8 10 1013.0 - - - - - - - - -
30/04:00pm 28.3 ESE 7 8 1013.1 - - - - - - - - -
30/03:30pm 27.8 ESE 7 9 1013.0 - - - - - - - - -
30/03:00pm 27.3 SE 6 8 1013.5 - - - - - - - - -
30/02:30pm 27.1 SE 6 8 1013.9 - - - - - - - - -
30/02:00pm 27.4 E 7 8 1014.5 - - - - - - - - -
30/01:30pm 27.3 E 8 10 1014.8 - - - - - - - - -
30/01:00pm 27.9 E 8 10 1015.4 - - - - - - - - -
30/12:30pm 27.3 ENE 8 10 1015.6 - - - - - - - - -
30/12:00pm 27.8 ENE 7 10 1015.9 - - - - - - - - -
30/11:30am 27.9 E 7 9 1016.1 - - - - - - - - -
30/11:00am 28.0 E 5 7 1016.2 - - - - - - - - -
30/10:30am 27.4 E 6 8 1016.2 - - - - - - - - -
30/10:00am 26.7 ESE 7 9 1016.2 - - - - - - - - -
30/09:30am 26.2 SE 7 8 1016.0 - - - - - - - - -
30/09:00am 25.9 SE 7 8 1015.8 - - - - - - - - -
30/08:30am 25.5 SSE 8 9 1015.5 - - - - - - - - -
30/08:00am 25.5 SE 7 8 1015.4 - - - - - - - - -
30/07:30am 25.5 ESE 6 8 1015.3 - - - - - - - - -
30/07:00am 25.4 ESE 6 8 1015.2 - - - - - - - - -
30/06:30am 25.4 ESE 5 6 1014.9 - - - - - - - - -
30/06:00am 25.6 ESE 6 6 1014.9 - - - - - - - - -
30/05:30am 25.4 E 6 7 1014.7 - - - - - - - - -
30/05:00am 25.5 E 6 7 1014.7 - - - - - - - - -
30/04:30am 25.6 E 7 8 1014.6 - - - - - - - - -
30/04:00am 25.6 E 7 8 1014.8 - - - - - - - - -
30/03:30am 25.6 ENE 8 9 1014.9 - - - - - - - - -
30/03:00am 25.7 E 9 11 1015.2 - - - - - - - - -
30/02:30am 25.7 E 8 9 1015.2 - - - - - - - - -
30/02:00am 25.9 E 9 11 1015.3 - - - - - - - - -
30/01:30am 25.8 E 9 11 1015.5 - - - - - - - - -
30/01:00am 26.0 E 9 11 1015.6 - - - - - - - - -
30/12:30am 26.0 E 8 11 1015.6 - - - - - - - - -
30/12:00am 26.2 E 10 13 1015.8 - - - - - - - - -
 
Date/Time
CST
Temp

°C
Wind Pressure Rain
since 9am
mm
Weather Cloud Vis
km
Sea
Height
m
Swell
Dir
 
Speed
knots
Gust
knots
hPa Trend Height
m
Period
s
Dir
29/11:30pm 26.3 E 11 14 1015.6 - - - - - - - - -
29/11:00pm 26.2 E 11 13 1015.6 - - - - - - - - -
29/10:30pm 26.4 E 9 11 1015.4 - - - - - - - - -
29/10:00pm 26.3 E 8 10 1015.5 - - - - - - - - -
29/09:30pm 26.2 E 8 9 1015.2 - - - - - - - - -
29/09:00pm 26.4 E 8 9 1015.0 - - - - - - - - -
29/08:30pm 26.3 E 7 8 1014.5 - - - - - - - - -
29/08:00pm 26.4 E 7 8 1014.4 - - - - - - - - -
29/07:30pm 26.6 E 7 9 1014.0 - - - - - - - - -
29/07:00pm 27.0 E 10 11 1013.9 - - - - - - - - -
29/06:30pm 27.3 E 10 12 1013.7 - - - - - - - - -
29/06:00pm 27.8 E 11 14 1013.5 - - - - - - - - -
29/05:30pm 27.7 E 11 14 1013.1 - - - - - - - - -
29/05:00pm 27.7 E 12 15 1013.0 - - - - - - - - -
29/04:30pm 27.9 E 12 16 1013.0 - - - - - - - - -
29/04:00pm 28.2 E 13 17 1013.2 - - - - - - - - -
29/03:30pm 28.0 ESE 11 15 1013.3 - - - - - - - - -
29/03:00pm 28.1 SE 12 15 1013.7 - - - - - - - - -
29/02:30pm 27.4 SE 11 14 1013.9 - - - - - - - - -
29/02:00pm 28.0 SE 11 14 1014.6 - - - - - - - - -
29/01:30pm 27.2 ESE 11 14 1014.9 - - - - - - - - -
29/01:00pm 28.3 ESE 10 14 1015.3 - - - - - - - - -
29/12:30pm 27.7 ESE 11 13 1015.5 - - - - - - - - -
29/12:00pm 27.3 ESE 11 13 1015.9 - - - - - - - - -
29/11:30am 27.3 SE 9 11 1015.9 - - - - - - - - -
29/11:00am 27.2 SE 8 10 1016.2 - - - - - - - - -
29/10:30am 26.7 SSE 9 11 1016.2 - - - - - - - - -
29/10:00am 26.9 SE 9 11 1016.3 - - - - - - - - -
29/09:30am 26.7 SE 9 11 1016.0 - - - - - - - - -
29/09:00am 26.3 ESE 9 10 1015.9 - - - - - - - - -
29/08:30am 26.1 ESE 8 10 1015.5 - - - - - - - - -
29/08:00am 25.8 ESE 8 10 1015.3 - - - - - - - - -
29/07:30am 26.2 SE 8 9 1014.9 - - - - - - - - -
29/07:00am 26.0 SE 8 9 1014.8 - - - - - - - - -
29/06:30am 26.2 SE 8 9 1014.6 - - - - - - - - -
29/06:00am 26.2 ESE 8 9 1014.7 - - - - - - - - -
29/05:30am 26.2 ESE 7 9 1014.6 - - - - - - - - -
29/05:00am 26.2 ESE 6 8 1014.6 - - - - - - - - -

Other Formats:

Comma delimited format used in spreadsheet applications
http://www.bom.gov.au/fwo/IDD60701/IDD60701.94103.axf

JavaScript Object Notation format (JSON) in row-major order
http://www.bom.gov.au/fwo/IDD60701/IDD60701.94103.json